TimeCDT,TemperatureF,Dew PointF,Humidity,Sea Level PressureIn,VisibilityMPH,Wind Direction,Wind SpeedMPH,Gust SpeedMPH,PrecipitationIn,Events,Conditions,WindDirDegrees,DateUTC
12:53 AM,70.0,28.0,21,29.49,10.0,West,8.1,-,N/A,,Clear,280,2013-05-19 05:53:00
1:53 AM,68.0,28.9,23,29.52,10.0,Variable,3.5,-,N/A,,Clear,0,2013-05-19 06:53:00
2:53 AM,72.0,28.9,20,29.52,10.0,WSW,3.5,-,N/A,,Partly Cloudy,240,2013-05-19 07:53:00
3:53 AM,69.1,32.0,25,29.53,10.0,NW,3.5,-,N/A,,Scattered Clouds,310,2013-05-19 08:53:00
5:53 AM,68.0,50.0,52,29.51,10.0,NNW,12.7,-,N/A,,Partly Cloudy,340,2013-05-19 10:53:00
7:53 AM,64.9,48.9,56,29.60,10.0,NW,13.8,-,N/A,,Clear,320,2013-05-19 12:53:00
8:53 AM,66.9,48.0,51,29.60,10.0,North,20.7,26.5,N/A,,Clear,350,2013-05-19 13:53:00
9:53 AM,71.1,48.0,44,29.61,10.0,NNW,20.7,25.3,N/A,,Clear,330,2013-05-19 14:53:00
10:53 AM,73.9,48.0,40,29.59,10.0,North,16.1,21.9,N/A,,Clear,360,2013-05-19 15:53:00
11:53 AM,75.9,46.9,36,29.59,10.0,North,13.8,23.0,N/A,,Clear,360,2013-05-19 16:53:00
12:53 PM,78.1,45.0,31,29.58,10.0,North,10.4,17.3,N/A,,Clear,360,2013-05-19 17:53:00
3:11 PM,77.0,42.8,29,29.70,10.0,West,3.5,-,0.00,Thunderstorm,Thunderstorm,270,2013-05-19 20:11:00
3:50 PM,78.8,44.6,30,29.68,10.0,Variable,3.5,-,0.00,Rain,Light Rain,0,2013-05-19 20:50:00
3:53 PM,78.1,44.1,30,29.55,10.0,Calm,Calm,-,0.00,Rain,Light Rain,0,2013-05-19 20:53:00
4:37 PM,75.2,42.8,31,29.69,10.0,SSE,6.9,-,0.00,Thunderstorm,Mostly Cloudy,150,2013-05-19 21:37:00
4:53 PM,73.0,42.1,33,29.55,10.0,South,9.2,29.9,0.00,Rain,Light Rain,190,2013-05-19 21:53:00
5:53 PM,78.1,45.0,31,29.52,10.0,ENE,8.1,-,0.01,,Clear,70,2013-05-19 22:53:00
6:53 PM,75.0,43.0,32,29.55,10.0,NW,27.6,34.5,0.00,Rain,Light Rain,320,2013-05-19 23:53:00
7:53 PM,78.1,35.1,21,29.56,10.0,Variable,3.5,-,0.00,,Partly Cloudy,0,2013-05-20 00:53:00
8:53 PM,69.1,41.0,36,29.60,10.0,North,8.1,-,N/A,,Clear,350,2013-05-20 01:53:00
9:53 PM,69.1,43.0,39,29.60,10.0,Calm,Calm,-,N/A,,Clear,0,2013-05-20 02:53:00
11:53 PM,60.1,44.1,55,29.65,10.0,NNE,8.1,-,N/A,,Clear,20,2013-05-20 04:53:00